Location: Quebec
(46.8000°N, 71.2500°W)
Time: 21:15:14
(UTC-04:00)

Tiangong 2 - Pass Details

Date: 09 October 2017
Orbit: 388 x 391 km, 42.8° (Epoch: 21 October)

Event Time Altitude Azimuth Distance (km) Brightness Sun altitude
Exits shadow 04:56:09 10° 161° (SSE) 1,449 4.0 -21.0°
Drops below altitude 10° 04:56:50 10° 149° (SSE) 1,419 4.1 -20.9°
Maximum altitude 04:56:52 10° 149° (SSE) 1,419 4.1 -20.9°
Sets 05:01:04 0° 96° (E) 2,280 6.3 -20.2°
